Wind_Speed
22 21 19 18 17 15 14 12 11 10 9 7 6 5 4 4 4 3 3 2 2 2 3 3 3 4 5 5 4 5 7 8 9 10 10 11 12 13 14 15 16 17
24 22 21 19 18 17 15 14 13 12 11 10 8 7 7 6 6 6 5 5 4 4 4 4 4 5 6 6 6 6 7 8 9 9 10 11 12 13 14 15 16 17
25 24 23 21 20 18 17 17 16 15 14 12 11 10 9 8 8 8 8 7 6 5 5 5 6 7 7 8 8 8 8 8 8 9 9 10 12 13 14 14 16 16
26 26 25 23 22 20 20 19 19 17 16 14 13 13 12 11 10 10 10 9 8 7 6 7 7 8 9 10 9 9 9 9 9 9 9 11 12 13 13 14 15 16
27 26 26 25 24 24 23 22 21 19 18 16 15 16 15 14 13 13 12 11 10 9 8 8 8 9 11 11 11 11 10 10 10 10 10 11 12 12 12 13 14 15
26 26 26 26 26 26 25 24 23 22 20 19 18 18 18 17 16 15 15 14 12 11 11 10 10 11 12 12 12 12 12 12 11 11 11 11 12 12 12 13 13 14
27 26 26 27 27 27 27 26 26 25 24 22 21 21 20 19 18 17 17 16 15 14 13 12 12 12 13 14 14 13 13 13 13 12 12 12 12 12 13 13 13 14
27 27 27 27 28 28 28 28 28 27 26 25 24 23 22 21 20 20 19 18 17 16 15 14 14 14 14 14 15 15 15 15 15 14 14 13 13 13 13 13 13 14
27 27 27 28 29 29 29 29 29 28 28 27 26 25 24 23 22 21 21 20 19 18 16 16 16 16 16 16 16 16 16 16 16 16 15 15 14 13 13 14 14 15
27 28 27 28 29 30 30 30 30 30 29 29 28 27 26 25 24 23 23 22 20 19 18 18 18 18 18 17 17 17 18 18 18 18 17 16 16 15 14 15 15 16
27 28 29 29 29 29 30 30 30 30 30 30 29 28 27 26 25 25 24 23 22 21 21 20 20 20 19 19 19 19 19 19 20 20 19 19 18 17 16 16 16 17
27 28 29 30 28 28 29 29 30 30 30 30 29 29 28 27 26 26 25 24 23 23 23 22 22 21 21 20 20 20 20 20 21 21 21 21 20 19 19 18 17 18
29 29 30 30 29 28 28 29 30 30 29 29 29 29 29 28 28 27 26 25 24 24 24 24 24 23 22 22 22 22 22 22 22 22 23 22 22 22 21 20 19 19
30 30 30 30 30 29 28 29 31 31 31 30 30 29 29 29 29 28 27 26 26 26 26 26 25 24 23 23 23 24 24 23 22 23 23 24 24 24 24 23 22 21
28 29 30 31 32 31 30 30 30 31 31 31 31 31 31 30 30 29 28 28 27 28 28 27 27 26 25 25 25 25 26 25 24 24 24 25 26 26 26 26 25 24
27 28 29 31 32 33 33 32 32 31 31 32 32 32 32 32 32 31 31 30 29 29 29 29 29 28 27 27 27 27 27 26 25 25 25 26 27 27 28 28 27 27
27 28 29 30 32 33 34 34 33 33 32 33 34 33 33 33 33 33 33 32 31 31 31 31 31 30 29 29 29 29 28 27 27 26 26 27 27 28 29 29 29 29
27 28 29 30 32 33 34 35 35 34 34 35 35 35 35 34 34 34 34 33 33 33 33 33 32 31 31 30 30 30 29 29 28 28 28 28 28 29 29 30 31 31
28 29 30 30 32 33 34 35 36 36 36 36 36 36 37 36 36 36 35 35 35 35 35 35 33 32 32 32 32 31 31 30 30 30 30 29 29 29 30 31 32 32
29 30 31 32 32 33 34 35 37 38 39 38 37 37 38 39 39 38 37 36 36 37 37 36 35 34 34 34 34 33 32 32 32 32 32 31 30 31 31 32 33 33
30 31 32 33 33 34 34 35 37 39 40 40 39 39 39 38 39 39 40 39 38 38 38 37 36 36 36 35 35 35 35 35 35 35 34 33 32 32 33 33 34 35
32 32 33 34 34 35 35 36 38 40 41 41 41 41 41 39 38 38 38 38 38 39 39 38 38 38 38 37 38 38 38 38 38 38 37 36 35 34 35 35 35 36
34 34 35 36 36 36 37 37 39 40 41 42 42 42 42 42 41 39 38 36 36 37 38 39 39 39 39 39 39 41 41 41 41 41 39 38 37 37 37 37 38 37
36 36 37 37 37 38 39 39 40 41 42 42 43 43 43 43 42 41 40 38 36 35 37 39 40 40 41 41 42 43 43 43 43 43 42 41 40 40 40 40 40 40
37 38 38 38 39 40 40 41 41 42 42 42 43 43 44 44 43 41 40 40 38 36 37 39 39 41 42 43 44 45 45 45 45 45 44 43 42 42 42 43 43 43
38 39 40 39 40 41 42 42 42 42 42 42 43 44 45 45 44 43 42 40 39 38 39 39 40 41 44 45 45 46 47 47 47 47 46 44 43 44 44 45 44 44
Wind_Direction
208 208 207 208 208 210 212 214 217 219 221 222 216 218 224 229 240 245 242 232 221 224 230 234 247 262 271 283 307 328 341 350 356 3 9 11 9 7 8 12 18 19
213 214 214 215 216 218 219 222 225 227 228 228 230 234 239 243 251 258 261 261 259 259 259 260 264 271 276 282 292 307 324 337 345 353 0 1 1 359 360 6 13 15
216 217 217 219 221 223 226 228 231 232 232 231 234 240 245 250 254 257 260 264 268 271 271 273 274 276 280 283 288 296 306 320 331 338 348 351 352 352 353 0 8 11
219 220 220 222 223 225 228 230 231 233 233 233 237 243 247 252 256 257 260 263 268 271 272 273 273 275 278 282 286 290 294 305 316 324 334 343 345 346 347 354 3 6
223 223 223 223 224 225 226 228 230 232 234 236 240 244 247 252 256 258 259 262 265 267 268 269 270 271 274 278 282 284 287 293 304 313 323 333 339 340 341 348 358 1
223 224 224 223 223 224 225 227 229 232 234 238 241 243 246 250 254 257 259 261 262 263 265 267 269 270 271 274 278 280 282 286 294 303 312 323 331 334 333 340 349 354
219 222 223 224 225 225 225 226 229 231 233 235 238 240 243 248 252 255 257 258 260 262 264 266 268 270 271 273 275 277 278 281 287 295 302 312 322 327 326 330 338 344
217 219 221 223 226 227 227 228 230 232 233 234 235 238 241 246 249 252 255 257 259 261 263 265 268 269 271 272 274 275 276 277 281 287 294 301 311 319 320 321 327 333
220 221 222 222 225 227 228 230 231 233 234 235 235 237 240 244 247 250 252 255 257 260 263 265 267 269 272 273 274 273 274 273 275 280 286 292 300 309 314 315 318 322
223 226 227 226 225 228 230 231 233 234 235 236 237 238 240 243 244 247 250 252 255 257 260 263 265 267 270 273 274 273 272 271 271 274 279 284 291 299 306 310 312 315
221 226 229 230 229 229 232 234 235 236 236 238 239 240 241 243 244 246 248 250 253 255 257 259 262 265 268 271 272 272 271 270 269 270 274 278 283 289 297 303 307 310
221 225 230 232 231 231 233 236 237 238 239 239 240 241 242 243 243 245 247 249 251 253 255 258 260 262 265 268 270 271 271 269 268 268 270 274 278 282 288 294 300 305
222 225 229 233 234 233 233 237 239 241 241 241 241 241 242 243 244 244 246 248 250 252 253 256 259 261 263 265 268 269 270 269 268 268 268 270 274 278 282 286 291 297
226 227 229 232 235 234 233 235 239 242 243 243 242 242 242 243 244 245 246 247 249 251 253 255 257 259 261 263 265 267 268 269 269 269 269 269 271 274 278 281 285 290
233 232 232 233 236 236 234 233 236 240 242 244 245 244 244 244 245 246 246 246 248 250 252 254 256 258 260 261 263 264 266 268 269 269 269 269 270 272 275 278 282 285
239 237 236 236 237 239 239 236 235 237 240 242 244 245 246 246 246 247 246 245 247 249 251 253 255 257 258 260 261 263 264 266 268 268 269 269 270 271 273 276 279 282
242 242 240 239 239 241 242 241 238 237 238 241 242 243 245 246 246 247 247 247 246 248 250 252 253 255 257 259 261 262 264 265 266 267 268 268 269 270 272 274 276 279
241 243 243 242 241 241 242 243 242 239 238 239 242 243 243 245 246 246 247 247 247 248 249 251 252 254 256 258 260 262 263 264 265 266 267 267 269 270 271 273 274 277
240 242 244 244 244 243 243 244 244 242 240 239 241 243 244 244 245 246 247 247 248 249 250 252 253 254 255 257 260 261 263 264 264 265 265 266 268 269 271 272 273 275
240 242 243 244 244 244 244 244 245 245 243 241 241 244 245 245 244 245 246 247 248 250 251 253 254 254 255 257 258 260 261 262 263 264 264 265 266 268 269 271 272 274
241 242 243 244 245 245 244 244 244 246 246 244 243 244 246 247 247 246 246 247 247 249 251 252 253 254 255 256 257 259 260 261 262 262 263 264 265 267 268 269 271 273
242 242 243 244 244 245 245 245 244 245 246 246 245 245 246 247 248 249 249 249 249 250 251 251 252 253 254 255 256 258 258 259 260 261 262 263 264 265 266 268 269 271
242 243 244 244 244 245 246 246 245 245 246 247 247 247 247 247 248 249 251 252 252 253 253 252 251 252 253 254 255 256 257 258 259 260 261 262 263 264 266 267 269 270
243 244 245 245 245 245 246 247 247 247 247 247 247 248 248 249 249 250 251 252 252 254 255 254 252 251 252 252 254 255 256 258 259 260 261 262 263 264 265 267 268 270
244 245 246 246 246 246 247 247 248 248 248 248 248 248 248 249 249 250 251 251 251 253 256 256 254 252 251 251 252 254 255 257 258 259 260 262 263 264 266 267 268 270
244 245 247 247 247 247 248 248 249 250 250 250 249 249 249 249 249 249 250 251 251 252 254 256 255 254 253 252 252 252 254 255 257 259 261 262 263 264 266 267 268 269
Height
11015 11017 11019 11020 11022 11023 11025 11026 11027 11028 11029 11031 11032 11032 11033 11034 11034 11034 11034 11034 11034 11035 11035 11035 11035 11035 11035 11035 11034 11034 11034 11033 11033 11032 11031 11030 11029 11028 11027 11027 11026 11025
11014 11016 11018 11019 11021 11022 11024 11025 11026 11027 11029 11030 11031 11032 11033 11033 11034 11034 11034 11034 11034 11035 11035 11035 11035 11035 11035 11034 11034 11034 11034 11033 11033 11032 11032 11031 11030 11029 11028 11027 11026 11025
11013 11014 11016 11018 11020 11022 11023 11024 11025 11026 11028 11029 11030 11031 11032 11033 11034 11034 11034 11034 11034 11034 11034 11034 11034 11034 11034 11034 11034 11034 11033 11033 11033 11032 11032 11031 11030 11029 11028 11027 11026 11025
11011 11012 11014 11016 11018 11020 11021 11022 11024 11025 11026 11028 11029 11030 11031 11032 11033 11033 11034 11034 11034 11034 11034 11034 11034 11034 11034 11034 11034 11033 11033 11033 11033 11032 11032 11031 11030 11029 11028 11027 11026 11025
11009 11011 11013 11014 11016 11018 11019 11020 11022 11023 11025 11027 11028 11029 11030 11031 11032 11032 11033 11033 11034 11034 11034 11033 11033 11033 11033 11033 11033 11033 11033 11033 11032 11032 11031 11031 11030 11029 11028 11027 11026 11025
11007 11009 11010 11012 11014 11015 11017 11018 11020 11022 11023 11025 11026 11027 11028 11029 11030 11031 11031 11032 11033 11033 11033 11033 11033 11033 11033 11033 11032 11033 11032 11032 11032 11031 11031 11030 11030 11029 11028 11027 11026 11025
11004 11006 11008 11010 11011 11012 11014 11016 11017 11019 11021 11022 11023 11025 11026 11027 11028 11029 11030 11030 11031 11032 11032 11032 11032 11032 11032 11032 11032 11032 11032 11031 11031 11031 11030 11030 11029 11029 11028 11027 11026 11025
11001 11003 11005 11007 11009 11010 11012 11013 11015 11016 11018 11020 11021 11022 11024 11025 11026 11027 11028 11029 11029 11030 11030 11030 11031 11031 11031 11031 11031 11031 11031 11031 11030 11030 11030 11029 11029 11028 11028 11027 11026 11025
11000 11001 11003 11004 11006 11007 11009 11011 11012 11014 11016 11017 11019 11020 11021 11023 11024 11025 11025 11026 11027 11028 11029 11029 11029 11029 11029 11030 11030 11030 11030 11030 11029 11029 11029 11028 11028 11028 11027 11026 11025 11025
10998 10999 11001 11002 11003 11005 11006 11008 11010 11011 11013 11014 11016 11018 11019 11020 11021 11022 11023 11024 11025 11026 11026 11027 11027 11027 11028 11028 11029 11029 11029 11029 11028 11028 11028 11027 11027 11027 11026 11026 11025 11024
10996 10997 10998 10999 11001 11003 11004 11006 11007 11009 11010 11012 11014 11015 11016 11018 11019 11020 11021 11022 11023 11024 11024 11025 11025 11025 11026 11026 11027 11027 11027 11027 11027 11027 11026 11026 11026 11026 11025 11025 11024 11023
10994 10995 10996 10997 10999 11001 11002 11004 11005 11006 11008 11009 11011 11012 11013 11015 11016 11017 11018 11019 11020 11021 11022 11022 11023 11023 11024 11024 11024 11025 11025 11025 11025 11025 11025 11024 11024 11024 11024 11023 11023 11022
10991 10992 10993 10995 10997 10999 11000 11001 11002 11003 11005 11007 11008 11009 11011 11012 11013 11014 11016 11017 11018 11018 11019 11020 11020 11021 11022 11022 11022 11022 11022 11023 11023 11023 11023 11022 11022 11022 11022 11021 11021 11020
10988 10989 10991 10992 10994 10996 10998 10999 10999 11000 11002 11004 11005 11006 11008 11009 11010 11012 11013 11014 11015 11016 11016 11017 11018 11018 11019 11020 11020 11019 11019 11020 11020 11020 11020 11020 11020 11019 11019 11019 11019 11018
10986 10987 10989 10990 10991 10993 10994 10995 10996 10997 10999 11000 11002 11003 11005 11006 11008 11009 11010 11011 11012 11013 11013 11014 11015 11016 11016 11017 11017 11016 11016 11017 11018 11018 11018 11017 11017 11017 11016 11016 11016 11016
10983 10985 10986 10987 10988 10989 10990 10992 10993 10994 10996 10997 10998 11000 11001 11003 11004 11006 11007 11008 11009 11010 11010 11011 11012 11013 11013 11014 11014 11013 11013 11014 11014 11015 11015 11014 11014 11014 11014 11013 11013 11013
10980 10981 10983 10984 10985 10986 10987 10988 10990 10991 10992 10993 10994 10996 10997 10999 11001 11002 11003 11005 11006 11006 11007 11008 11008 11009 11010 11010 11010 11010 11010 11011 11011 11011 11011 11011 11011 11011 11011 11011 11010 11010
10976 10977 10979 10980 10981 10982 10983 10984 10986 10987 10988 10989 10990 10991 10993 10995 10996 10998 10999 11001 11002 11002 11003 11004 11005 11006 11007 11007 11007 11007 11007 11007 11007 11008 11008 11008 11008 11008 11007 11007 11007 11007
10972 10974 10975 10976 10977 10978 10979 10981 10982 10983 10984 10984 10986 10988 10989 10990 10992 10993 10995 10996 10997 10998 10999 11000 11002 11002 11003 11003 11003 11003 11003 11004 11004 11004 11004 11004 11004 11004 11004 11004 11003 11003
10968 10970 10971 10972 10973 10974 10976 10977 10977 10978 10979 10980 10982 10984 10985 10985 10987 10989 10990 10992 10993 10994 10995 10996 10998 10998 10999 11000 11000 10999 11000 10999 10999 10999 11000 11000 11001 11001 11000 11000 11000 10999
10964 10965 10966 10967 10969 10970 10971 10972 10973 10973 10974 10976 10978 10979 10980 10981 10983 10985 10986 10987 10988 10989 10990 10992 10993 10994 10995 10996 10995 10995 10995 10995 10995 10995 10995 10996 10997 10997 10996 10996 10996 10996
10959 10960 10961 10962 10964 10965 10966 10968 10969 10969 10970 10971 10973 10974 10975 10977 10979 10980 10981 10983 10984 10985 10986 10988 10988 10989 10990 10991 10991 10991 10991 10990 10990 10990 10991 10992 10993 10993 10992 10992 10992 10992
10954 10955 10956 10957 10959 10960 10961 10963 10964 10965 10966 10967 10969 10970 10971 10972 10974 10975 10977 10979 10980 10981 10982 10983 10984 10984 10985 10986 10986 10986 10985 10985 10985 10985 10986 10987 10988 10988 10988 10988 10988 10988
10949 10950 10951 10953 10954 10955 10956 10958 10959 10960 10961 10963 10964 10966 10967 10968 10969 10971 10973 10974 10976 10977 10977 10978 10979 10979 10980 10981 10981 10980 10980 10980 10980 10981 10981 10982 10983 10984 10983 10983 10983 10983
10945 10946 10947 10948 10949 10950 10951 10953 10954 10955 10957 10958 10960 10961 10962 10964 10965 10967 10968 10969 10971 10972 10972 10973 10974 10974 10974 10974 10975 10974 10975 10975 10975 10975 10976 10977 10979 10979 10979 10978 10979 10978
10940 10940 10941 10943 10944 10945 10947 10948 10949 10951 10953 10954 10955 10956 10958 10959 10961 10962 10963 10964 10966 10967 10967 10967 10969 10969 10968 10968 10969 10969 10969 10969 10970 10970 10971 10973 10974 10974 10973 10973 10973 10973